Location: Betzweiler
(48.3657°N, 8.4808°E)
Time: 12:47:45
(UTC+00:00)

Daily predictions for brighter satellites

Satellite Brightness Start Highest point End
(mag) Time Altitude Azimuth Time Altitude Azimuth Time Altitude Azimuth
Cosmos 1709 Rocket 4.3 20:02:45 10° N 20:08:50 56° ENE 20:14:56 10° SSE
Ariane Rocket 3.1 20:06:57 10° SSE 20:12:03 84° WSW 20:17:12 10° NNW
Terra 3.0 20:08:05 10° SE 20:12:12 30° ENE 20:16:20 10° N
Meteor 2-5 Rocket 4.2 20:07:45 10° SSE 20:12:53 41° E 20:18:03 10° NNE
FALCON 9 DEB 3.1 20:10:01 10° SW 20:13:10 51° SSE 20:16:22 10° ENE
ARIANE 5 R/B 4.2 20:10:05 10° ESE 20:13:35 23° ENE 20:17:05 10° N
ERBS 4.3 20:14:43 10° W 20:16:46 17° SW 20:18:50 10° S
Cosmos 1943 3.5 20:16:47 10° SSW 20:22:27 76° WNW 20:28:08 10° NNE
Okean 1 Rocket 4.1 20:21:06 10° NNW 20:25:24 46° W 20:29:39 10° SSW
USA 267 3.7 20:20:16 10° ENE 20:26:21 40° SE 20:32:24 10° SSW
Cosmos 1603 4.0 20:21:49 10° SSW 20:27:31 78° WNW 20:33:18 10° NNE
Cosmos 1953 3.9 20:25:27 10° NNW 20:29:02 34° W 20:32:37 10° SSW
Cosmos 1455 Rocket 3.0 20:25:15 10° N 20:29:38 73° E 20:33:57 10° SSE
CZ-4B R/B 2.3 20:30:29 10° N 20:33:16 43° WNW 20:36:02 10° SW
USA 245 3.7 20:28:57 10° SSE 20:34:02 86° WSW 20:38:09 10° NNW
S3M 4.2 20:30:58 10° SSW 20:37:10 74° W 20:43:21 10° N
Cosmos 1025 Rocket 3.1 20:33:55 10° S 20:38:07 62° E 20:42:23 10° NNE
Cosmos 1371 Rocket 4.1 20:37:17 10° S 20:42:22 57° ESE 20:47:34 10° NNE
Spot 2 Rocket 3.5 20:38:06 10° SSE 20:43:10 80° ENE 20:48:18 10° NNW
IRAS Rocket 4.5 20:39:32 10° NNE 20:45:10 77° WNW 20:50:44 10° SSW
Cosmos 1607 4.1 20:42:59 10° SSW 20:48:58 51° ESE 20:54:57 10° NE
Helios 1A Rocket 2.9 20:45:45 11° SSE 20:49:36 87° E 20:53:43 10° NNW
Cosmos 1455 2.4 20:49:21 10° N 20:53:07 58° ENE 20:56:08 15° SSE
Cosmos 1980 Rocket 4.4 20:51:14 10° N 20:54:49 17° NE 20:58:23 10° ENE
ATLAS 2AS CENTAUR R/B 2.9 20:47:54 10° NW 20:55:07 74° NE 21:01:13 13° SE
Cosmos 1536 Rocket 4.4 20:53:22 14° SSE 20:56:31 33° E 21:00:26 10° NNE
SPOT 3 Rocket 4.2 20:52:29 10° S 20:57:32 53° W 21:02:40 10° NNW
Cosmos 2369 Rocket 4.5 20:54:06 10° WNW 20:57:42 18° W 21:01:17 10° SW
Cosmos 1697 Rocket 4.3 20:54:44 10° N 20:59:27 26° NE 21:04:07 10° ESE
USA 234 3.5 20:55:02 10° ESE 21:01:33 70° NNE 21:08:05 10° NW
Lacrosse 4 Rocket 3.8 20:58:06 10° WSW 21:01:37 26° NW 21:05:06 10° NNE
Meteor 1-24 Rocket 3.6 20:57:27 10° S 21:02:45 89° E 21:08:10 10° NNE
Cosmos 1975 Rocket 3.6 20:58:26 10° SSW 21:02:52 63° WNW 21:07:18 10° N
Cosmos 1624 Rocket 4.0 20:58:33 10° SSW 21:03:47 78° ESE 21:09:01 10° NNE
SPOT 5 2.9 21:00:59 11° S 21:05:15 65° WSW 21:09:37 10° NNW
Cosmos 1190 Rocket 4.4 21:01:29 10° NNW 21:06:44 61° WSW 21:11:23 13° S
Cosmos 2184 Rocket 4.2 21:04:56 10° N 21:11:02 60° ENE 21:15:54 16° SSE
X-37B 2.5 21:11:02 10° SSW 21:11:34 13° SSW 21:11:34 13° SSW
Cosmos 2228 3.8 21:09:40 10° N 21:13:38 36° ENE 21:16:17 18° SE
CZ-2C R/B 3.7 21:09:50 10° NNE 21:14:30 85° ESE 21:19:03 10° SSW
Resurs 01 Rocket 4.2 21:14:31 10° WSW 21:17:00 15° W 21:19:30 10° NW
RESURS DK-1 3.9 21:13:47 10° N 21:17:24 28° NE 21:20:38 12° ESE
Cosmos 1544 Rocket 3.8 21:16:40 10° NNW 21:20:57 64° W 21:24:27 15° S
Lacrosse 5 rocket 1.3 21:17:51 10° WNW 21:21:42 66° SW 21:24:15 21° SE
ATLAS 5 CENTAUR R/B 4.1 21:11:27 10° NW 21:22:39 37° WSW 21:26:13 13° S
Cosmos 1656 3.9 21:17:14 10° NNW 21:22:40 63° ENE 21:26:45 18° SE
Cosmos 2056 Rocket 3.8 21:18:23 10° SSW 21:23:45 75° WNW 21:29:13 10° NNE
Cosmos 1741 Rocket 4.5 21:22:38 10° NNW 21:27:51 53° ENE 21:31:37 18° SE
ERS-1 Rocket 3.7 21:24:22 12° S 21:28:50 48° W 21:33:45 10° NNW
Cosmos 1833 Rocket 3.7 21:27:39 19° SE 21:30:22 28° ESE 21:35:03 10° NE
Lacrosse 5 1.8 21:27:27 10° NW 21:32:36 86° SW 21:36:18 19° SE
Cosmos 676 Rocket 4.4 21:28:13 10° NNW 21:33:29 59° WSW 21:37:18 18° S
Cosmos 1420 Rocket 4.2 21:29:43 10° SSW 21:34:56 74° WNW 21:40:16 10° NNE
Tiangong 2.5 21:33:52 10° WSW 21:36:05 23° SSW 21:36:05 23° SSW
Cosmos 2084 3.0 21:34:01 10° SW 21:37:51 84° SE 21:41:45 10° NE
NOSS 2-1 (E) 4.1 21:34:03 10° NW 21:38:37 81° SW 21:43:01 20° SE
SL-8 R/B 3.7 21:34:30 10° W 21:39:21 88° N 21:44:12 10° E
Cosmos 1271 Rocket 3.9 21:40:30 10° NNW 21:44:13 38° W 21:47:01 16° SSW
Cosmos 2082 Rocket 3.9 21:45:07 14° ESE 21:46:50 16° E 21:50:16 10° ENE
FALCON 9 DEB 4.2 21:46:22 10° W 21:49:31 44° NNW 21:52:41 10° ENE
ARIANE 5 R/B 3.4 21:46:38 17° SSW 21:49:46 46° W 21:54:05 10° NNW
Terra 2.9 21:46:06 14° SSW 21:49:50 37° W 21:54:17 10° NNW
Cosmos 2058 Rocket 4.2 21:52:10 10° N 21:56:07 32° ENE 21:58:21 20° ESE
USA 276 2.7 21:58:54 34° ESE 21:58:54 34° ESE 22:00:54 10° E
Cosmos 2344 4.4 21:49:56 10° NW 21:58:33 71° NE 22:10:08 11° SE
Cosmos 1850 Rocket 4.0 21:54:45 10° NNW 22:00:00 85° WSW 22:03:00 26° SSE
SAR-Lupe-4 3.6 21:58:12 10° NNE 22:01:48 80° WNW 22:03:44 25° SSW
Cosmos 2074 Rocket 4.4 21:56:53 10° NNW 22:03:02 59° W 22:07:42 18° SSW
Cosmos 1892 Rocket 4.2 22:02:20 27° SE 22:04:10 41° E 22:08:19 10° NNE
GP-B 3.4 22:00:40 10° N 22:05:02 54° E 22:07:04 29° SSE
USA 267 3.4 22:03:09 10° NE 22:09:42 78° NNW 22:16:14 10° WSW
Cosmos 1408 3.4 22:13:04 29° ESE 22:13:43 32° E 22:16:50 10° NNE
Spot 4 4.0 22:11:56 27° SSE 22:14:27 66° ENE 22:19:13 10° N
COSMOS 2406 3.9 22:13:20 26° SSE 22:15:49 38° ESE 22:21:05 10° NE
ADEOS Rocket 3.8 22:15:50 20° SE 22:20:44 57° ENE 22:28:07 10° N
Cosmos 962 Rocket 4.5 22:15:11 10° N 22:21:25 80° E 22:25:08 26° SSE
ASTEX 1 3.4 22:16:34 10° N 22:21:36 82° W 22:24:31 25° SSW
Cosmos 1331 Rocket 4.0 22:19:07 25° S 22:22:16 72° ESE 22:27:34 10° NNE
TSX-5 4.4 22:19:37 16° SW 22:23:10 77° WNW 22:28:52 10° NNE
Nadezhda 1 Rocket 4.1 22:18:57 18° SSW 22:23:33 71° W 22:29:39 10° N
Cosmos 2154 Rocket 4.4 22:17:40 10° NNW 22:23:47 58° W 22:27:53 21° SSW
Cosmos 2369 4.2 22:18:27 10° NNW 22:24:07 56° ENE 22:27:54 21° SE
Meteor 1-11 4.4 22:22:19 27° SSE 22:25:14 56° E 22:30:42 10° NNE
Cosmos 1452 Rocket 3.8 22:21:03 14° SSW 22:25:37 67° WNW 22:30:53 10° NNE
Cosmos 1825 3.6 22:26:15 22° ESE 22:27:01 23° E 22:30:02 10° NE
SL-16 R/B 4.3 22:23:45 10° N 22:28:01 21° NE 22:32:15 10° E
Cosmos 1328 3.9 22:28:57 31° SSW 22:30:48 73° W 22:34:50 10° N
H-2A R/B 3.9 22:27:49 10° NNE 22:31:54 48° E 22:33:14 34° SSE
Cosmos 1980 Rocket 2.5 22:34:19 10° NNW 22:40:01 65° ENE 22:43:31 24° SE
Cosmos 1110 Rocket 4.1 22:37:53 20° SSW 22:41:30 75° WNW 22:46:50 10° NNE
Cosmos 1606 Rocket 4.3 22:38:04 10° NNW 22:42:09 42° W 22:44:04 26° SW
Cosmos 1697 Rocket 2.8 22:38:19 10° NNW 22:43:55 67° WSW 22:46:39 30° S
ERS-2 3.1 22:41:16 10° NE 22:44:29 30° E 22:44:58 29° ESE
USA 234 3.6 22:41:26 27° SSE 22:44:46 47° SW 22:51:05 10° WNW
ATLAS 2AS CENTAUR R/B 3.8 22:39:37 10° NW 22:45:24 28° WSW 22:48:38 19° SSW
Cosmos 1302 Rocket 4.1 22:43:52 32° S 22:46:07 57° ESE 22:51:14 10° NNE
Cosmos 1892 2.5 22:48:56 46° S 22:49:57 78° E 22:53:44 10° NNE
Celestis-02/Orion 38 4.5 22:48:31 30° SSE 22:51:10 86° WSW 22:56:18 10° NNW
SJ 16-02 3.8 22:50:32 10° NNE 22:53:22 16° NE 22:56:11 10° E
RESURS DK-1 3.2 22:51:39 10° NW 22:55:28 36° WSW 22:56:28 31° SW
In-Cosmos 22 Rocket 4.3 22:52:54 31° S 22:55:38 67° E 23:01:08 10° NNE
Lacrosse 5 rocket 3.6 22:58:51 10° WSW 22:59:45 11° WSW 22:59:45 11° WSW
SL-8 Rocket 4.0 22:54:35 10° NNW 23:00:51 75° W 23:04:12 29° S
Cosmos 2218 Rocket 4.1 23:00:12 10° N 23:06:37 80° W 23:10:07 29° S
ALOS 2 2.8 23:07:30 36° SSW 23:09:03 58° W 23:13:24 10° NNW
Cosmos 2322 Rocket 4.0 23:04:46 10° NNW 23:09:36 28° NE 23:14:26 10° ESE
Cosmos 2278 4.0 23:04:19 10° NNW 23:10:03 66° ENE 23:13:40 23° SE
Cosmos 2341 Rocket 4.4 23:03:53 10° NNW 23:10:04 55° W 23:13:32 26° SSW
Cosmos 1833 Rocket 3.3 23:09:16 14° SW 23:13:58 54° WNW 23:19:31 10° NNE
Cosmos 2366 rocket 4.1 23:08:28 10° NNW 23:14:45 71° W 23:18:08 29° S
Lacrosse 5 3.4 23:11:21 10° WNW 23:14:57 20° WSW 23:15:28 19° SW
Cosmos 2084 Rocket 3.1 23:14:13 10° NW 23:18:08 89° SW 23:19:33 39° SE
Cosmos 1812 Rocket 3.8 23:14:32 10° N 23:19:00 62° ENE 23:20:47 34° SE
SL-8 R/B 3.7 23:17:04 10° W 23:21:49 60° SSW 23:24:35 24° SE
Cosmos 968 Rocket 3.8 23:21:08 10° NNW 23:26:09 52° WSW 23:28:09 33° SSW
Cosmos 2082 Rocket 2.2 23:26:56 28° SSW 23:30:08 87° WNW 23:35:53 10° NNE
ATLAS 5 CENTAUR R/B 2.5 23:30:58 25° ESE 23:31:00 25° ESE 23:34:20 10° ENE
Cosmos 1633 2.5 23:31:19 53° SSE 23:31:55 65° E 23:35:23 10° NNE
Resurs 1-4 Rocket 4.4 23:30:32 10° ENE 23:32:30 12° E 23:34:29 10° ESE
USA 276 2.3 23:30:25 10° W 23:33:20 64° N 23:36:13 10° ENE
Cosmos 1602 Rocket 3.4 23:32:14 41° S 23:33:40 80° E 23:38:01 10° NNE
Cosmos 2058 Rocket 4.4 23:30:16 10° NNW 23:34:01 28° W 23:35:36 22° SW
BREEZE-M DEB (TANK) 4.1 23:31:18 10° WNW 23:35:00 88° SSW 23:51:09 10° ESE
Cosmos 1869 3.9 23:37:54 10° NNW 23:41:32 41° W 23:42:27 35° SW
Cosmos 1486 Rocket 3.9 23:39:17 10° NNW 23:44:30 78° WSW 23:46:54 33° S
Cosmos 2360 Rocket 3.6 23:46:13 10° NNW 23:51:25 35° NE 23:56:35 10° ESE
USA 267 4.4 23:46:10 10° ENE 23:52:18 45° N 23:58:27 10° W
Cosmos 1238 4.0 23:55:46 69° SSE 23:56:04 82° E 23:59:07 10° N
